Regional Weather Roundup
Issued by NWS Midland/Odessa, TX

Skip options and go directly to product.
Home | Oldest Version | Next Version | Current Version | All | Text Only | Save Text | Print | Product List | Glossary On

Skip product version selection by date and time.   
136
ASUS44 KMAF 051701
RWRMAF
MIDLAND AREA WEATHER ROUNDUP
NATIONAL WEATHER SERVICE MIDLAND TX
1200 PM CDT SUN JUL 05 2015

...IN SOUTHWEST TEXAS AND SOUTHEAST NEW MEXICO...

CITY           SKY/WX    TMP DP  RH WIND       PRES   REMARKS
ALPINE         SUNNY     85  59  40 SW7       30.17F
ANDREWS        PTSUNNY   84  66  55 S7        30.04F
ARTESIA        SUNNY     84  64  51 S10G20    30.04F
BIG SPRING     MOSUNNY   85  65  50 S15       30.05S
CARLSBAD       SUNNY     87  65  47 SE8       30.02F
DRYDEN           N/A     86  69  56 E9        30.01F
FORT STOCKTON  SUNNY     88  64  44 CALM      30.02F THUNDER
GUAD PASS      SUNNY     80  60  50 SW15G23   30.18F
HOBBS          MOSUNNY   82  63  51 E8        30.07F
MARFA          SUNNY    N/A N/A N/A SE8G16    30.17F
MIDLAND AIRPK  MOSUNNY   85  66  53 S14G22    30.03F
MIDLAND INTL   MOSUNNY   84  66  54 S10G22    30.02F
ODESSA         SUNNY     84  66  54 S14       30.04F
PECOS          SUNNY     87  63  43 CALM      29.99F
PRESIDIO       NOT AVBL
SEMINOLE       PTSUNNY   84  65  52 S10G22    30.06F
SNYDER         MOSUNNY   82  69  65 S14G20    30.04S
WINK           SUNNY     89  66  46 S7        30.00F
$$
...OTHER STATIONS IN TEXAS...

CITY           SKY/WX    TMP DP  RH WIND       PRES   REMARKS
ABILENE        MOSUNNY   86  67  52 S16       30.03S
AMARILLO       SUNNY     85  64  49 S16       30.05S
AUSTIN         MOSUNNY   85  73  67 S14       30.05F
BROWNSVILLE    PTSUNNY   89  76  65 SE20G28   30.03S HX 100
CORPUS CHRISTI PTSUNNY   89  75  63 SE18G30   30.04F
DALLAS FTW     MOSUNNY   90  69  50 S17       30.02S
DEL RIO        MOSUNNY   85  70  60 SE13G21   29.99F
EL PASO        PTSUNNY   82  61  48 SW7       30.08S
HOUSTON INT    PTSUNNY   88  73  61 S10G22    30.07F
LUBBOCK        PTSUNNY   85  66  53 S13       30.05S
SAN ANGELO     MOSUNNY   85  69  58 S17       30.02F
SAN ANTONIO    MOSUNNY   85  72  65 S15G24    30.05F
WACO           MOSUNNY   89  69  51 S20G26    30.05S
WICHITA FALLS  NOT AVBL
$$
...OTHER LOCATIONS IN NEW MEXICO...

CITY           SKY/WX    TMP DP  RH WIND       PRES   REMARKS
ALAMAGORDO     SUNNY     84  57  39 S7        30.09F
ALBUQUERQUE    PTSUNNY   79  56  45 VRB5      30.15F
CANNON AFB     MOSUNNY   84  62  47 S10       30.07F
CLOVIS         SUNNY     82  61  47 S16G24      N/A
HOLLOMAN AFB   SUNNY     85  58  39 S8        30.06F
ROSWELL        SUNNY     86  63  45 S9        30.03F
RUIDOSO        MOSUNNY   75  54  46 N5        30.26F
SANTA FE       PTSUNNY   76  53  44 SW8       30.19F
TRUTH OR CONSE PTSUNNY   80  59  48 VRB3      30.12F
TUCUMCARI      SUNNY     89  60  37 SW13G24   30.01F
$$

USA.gov is the U.S. government's official web portal to all federal, state and local government web resources and services.